Home   Weather   Easter Island   Past weeks

Flag for Chile Past Weather in Easter Island, Chile — Yesterday and Last 2 Weeks

70 °F

Partly sunny.

Feels Like: 70 °F
Forecast: 64 / 71 °F
Wind: 17 mph from Southeast

Location: Isla De Pascua

Current Time: Oct 27, 2016 at 7:54:36 PM

Latest Report: Oct 27, 2016 at 7:00 PM

Visibility: N/A

Pressure: 30.09 "Hg

Humidity: 60%

Dew Point: 55 °F

Location of Easter IslandLocation

Past Weather in Easter Island — Graph


Easter Island Temperature Yesterday

Maximum temperature yesterday: 72 °F (at 1:00 PM)
Minimum temperature yesterday: 64 °F (at 1:00 AM)
Average temperature yesterday: 68 °F

High & Low Weather Summary for the Past Weeks

High77 °F (Oct 16, 1:00 PM)94% (Oct 13, 3:00 AM)30.24 "Hg (Oct 13, 3:00 AM)
Low57 °F (Oct 21, 5:00 AM)53% (Oct 27, 12:00 PM)29.95 "Hg (Oct 25, 6:00 AM)
Average69 °F78%30.13 "Hg
* Reported Oct 12 7:00 PM — Oct 27 7:00 PM, Easter Island, Weather by CustomWeather, © 2016

Note: Actual official high and low records may vary slightly from our data, if they occured in-between our weather recording intervals... More about our weather records


Easter Island Weather History for the Previous 24 Hours

Scroll right to see more
Time TempWeatherWind HumidityBarometerVisibility
7:00 PM
Thu, Oct 27
70 °FPartly sunny.17 mph60%30.09 "HgN/A
6:00 PM72 °FScattered clouds.16 mph57%30.12 "HgN/A
5:00 PM72 °FScattered clouds.15 mph57%30.12 "HgN/A
4:00 PM72 °FScattered clouds.15 mph57%30.12 "HgN/A
2:00 PM72 °FPartly sunny.15 mph53%30.15 "HgN/A
1:00 PM72 °FSunny.17 mph53%30.15 "Hg10 mi
12:00 PM72 °FSunny.17 mph53%30.15 "Hg10 mi
11:00 AM70 °FSunny.17 mph57%30.15 "Hg10 mi
10:00 AM70 °FSunny.17 mph57%30.15 "Hg10 mi
9:00 AM66 °FScattered clouds.14 mph64%30.12 "HgN/A
8:00 AM64 °FPassing clouds.12 mph68%30.12 "HgN/A
7:00 AM61 °FPassing clouds.6 mph77%30.09 "HgN/A
6:00 AM59 °FPassing clouds.2 mph82%30.09 "HgN/A
5:00 AM59 °FPassing clouds.5 mph82%30.09 "HgN/A
4:00 AM59 °FPassing clouds.6 mph82%30.09 "HgN/A
3:00 AM63 °FPassing clouds.7 mph73%30.12 "HgN/A
2:00 AM64 °FPassing clouds.7 mph68%30.12 "HgN/A
1:00 AM63 °FPassing clouds.2 mph73%30.15 "HgN/A
12:00 AM64 °FPassing clouds.10 mph68%30.15 "HgN/A
11:00 PM
Wed, Oct 26
64 °FPassing clouds.15 mph68%30.12 "HgN/A
10:00 PM64 °FPassing clouds.16 mph73%30.12 "HgN/A
9:00 PM66 °FSunny.15 mph64%30.09 "Hg10 mi
8:00 PM68 °FSunny.14 mph64%30.07 "Hg10 mi
7:00 PM70 °FSunny.17 mph60%30.07 "Hg10 mi
Weather by CustomWeather, © 2016

See weather overviewHow to use our weather pages